Weather History for Leuchars, United Kingdom

Change the Weather History Date:

Friday, October 5, 2012

  Actual Average Record
Temperature  
Mean Temperature 48 °F -  
Max Temperature 56 °F 52 °F 66 °F (2001)
Min Temperature 40 °F 41 °F 35 °F (1999)
Degree Days  
Heating Degree Days 17    
Moisture  
Dew Point 41 °F    
Average Humidity 79    
Maximum Humidity 100    
Minimum Humidity 39    
Precipitation  
Precipitation 0.00 in - - ()
Sea Level Pressure  
Sea Level Pressure 29.54 in    
Wind  
Wind Speed 5 mph ()    
Max Wind Speed 13 mph    
Max Gust Speed -    
Visibility 6.7 miles    
Events Fog , Rain    
Averages and records for this station are not official NWS values.
T = Trace of Precipitation, MM = Missing Value Source: Averaged Metar Reports

Daily Weather History Graph

Daily Weather History Graph

Search for Another Location

Airport:

Trip Planner

Search our weather history database for the weather conditions in past years. The results will help you decide how hot, cold, wet, or windy it might be!

Date:

Astronomy

Oct. 05, 2012 Rise Set
Actual Time 7:23 AM BST 6:34 PM BST
Civil Twilight 6:45 AM BST 7:12 PM BST
Nautical Twilight 6:02 AM BST 7:55 PM BST
Astronomical Twilight 5:17 AM BST 8:40 PM BST
Moon 8:51 PM BST (10/5) 1:14 PM BST (10/5)
Length of Visible Light 12h 26m
Length of Day
11h 11m
Waning Gibbous, 76% of the Moon is Illuminated
Oct 5
Waning Gibbous
Oct 8
Last Quarter
Oct 15
New
Oct 22
First Quarter
Oct 29
Full

Hourly Weather History & Observations

Time (BST) Temp. Windchill Dew Point Humidity Pressure Visibility Wind Dir Wind Speed Gust Speed Precip Events Conditions
12:50 AM 41 °F - 40 °F 92% 29.52 in 31 mi NE 1.2 mph - -   Partly Cloudy
12:50 AM 41.0 °F - 39.2 °F 93% 29.50 in 6.2 mi NE 1.2 mph - N/A   Mostly Cloudy
1:50 AM 41.0 °F - 39.2 °F 93% 29.47 in 6.2 mi North 1.2 mph - N/A   Mostly Cloudy
2:50 AM 46.4 °F - 42.8 °F 87% 29.47 in 6.2 mi South 2.3 mph - N/A Rain Light Rain
3:50 AM 45 °F - 43 °F 88% 29.48 in 6 mi West 5.8 mph - - Rain Rain
3:50 AM 44.6 °F 41.4 °F 42.8 °F 93% 29.47 in 6.2 mi West 5.8 mph - N/A Rain Rain
4:50 AM 44.6 °F - 42.8 °F 93% 29.44 in 6.2 mi WSW 1.2 mph - N/A   Mostly Cloudy
5:50 AM 41.0 °F - 41.0 °F 100% 29.44 in 6.2 mi WNW 1.2 mph - N/A Fog Shallow Fog
6:50 AM 41 °F - 41 °F 98% 29.46 in 16 mi West 3.5 mph - - Fog Patches of Fog
6:50 AM 41.0 °F 39.0 °F 41.0 °F 100% 29.44 in 6.2 mi West 3.5 mph - N/A Fog Shallow Fog
7:50 AM 41.0 °F 37.1 °F 39.2 °F 93% 29.44 in 6.2 mi West 5.8 mph - N/A   Partly Cloudy
8:50 AM 44.6 °F 40.2 °F 42.8 °F 93% 29.44 in 6.2 mi West 8.1 mph - N/A   Scattered Clouds
9:50 AM 47 °F - 43 °F 79% 29.49 in 28 mi West 11.5 mph - -   Scattered Clouds
9:50 AM 46.4 °F 41.1 °F 42.8 °F 87% 29.47 in 6.2 mi West 11.5 mph - N/A   Partly Cloudy
10:50 AM 48.2 °F - 41.0 °F 76% 29.47 in 6.2 mi West 12.7 mph - N/A   Partly Cloudy
11:50 AM 51.8 °F - 42.8 °F 71% 29.50 in 6.2 mi WNW 11.5 mph - N/A   Partly Cloudy
12:50 PM 53 °F - 42 °F 56% 29.54 in 31 mi WNW 12.7 mph - -   Scattered Clouds
12:50 PM 53.6 °F - 41.0 °F 62% 29.53 in 6.2 mi WNW 12.7 mph - N/A   Partly Cloudy
1:50 PM 53.6 °F - 41.0 °F 62% 29.56 in 6.2 mi West 11.5 mph - N/A   Scattered Clouds
2:50 PM 55.4 °F - 39.2 °F 54% 29.56 in 6.2 mi WNW 9.2 mph - N/A   Partly Cloudy
3:50 PM 55 °F - 37 °F 39% 29.58 in 31 mi West 11.5 mph - -   Scattered Clouds
3:50 PM 55.4 °F - 37.4 °F 51% 29.56 in 6.2 mi West 11.5 mph - N/A   Partly Cloudy
4:50 PM 55.4 °F - 39.2 °F 54% 29.59 in 6.2 mi West 12.7 mph - N/A   Partly Cloudy
5:50 PM 51.8 °F - 39.2 °F 62% 29.62 in 6.2 mi WNW 9.2 mph - N/A   Partly Cloudy
6:50 PM 45 °F - 39 °F 74% 29.64 in 31 mi WSW 5.8 mph - -   Mostly Cloudy
6:50 PM 44.6 °F 41.4 °F 39.2 °F 81% 29.62 in 6.2 mi WSW 5.8 mph - N/A   Mostly Cloudy
7:50 PM 46.4 °F 41.9 °F 41.0 °F 81% 29.62 in - West 9.2 mph - N/A   Clear
8:50 PM 42.8 °F 38.6 °F 39.2 °F 87% 29.65 in - West 6.9 mph - N/A   Clear
9:50 PM 44 °F - 40 °F 83% 29.67 in 25 mi West 6.9 mph - -   Scattered Clouds
9:50 PM 44.6 °F 40.7 °F 41.0 °F 87% 29.65 in - West 6.9 mph - N/A   Clear
10:50 PM 44.6 °F 40.7 °F 41.0 °F 87% 29.65 in - WNW 6.9 mph - N/A   Clear
11:50 PM 42.8 °F 38.6 °F 39.2 °F 87% 29.68 in - WNW 6.9 mph - N/A   Clear